[[{"header":{"parameterUnit":"m.s-1","parameterCategory":1,"la1":30.2991,"la2":30.254,"lo1":-89.0895,"lo2":-89.0444,"dy":0.0017,"dx":0.0017,"nx":28,"ny":28,"refTime":"2025-01-06T03:00:00:Z","depth":0,"parameterNumber":2,"parameterNumberName":"U-component_of_WINDS"},"data":[0,0,0,0,0,0,0,0,0,0,0,0,0,0,0,0,0,0,0,0,0,0,0,0,0,0,0,0,0,0,0,0,0,0,0,0,0,0,0,0,0,0,0,0,0,0,0,0,0,0,0,0,0,0,0,0,0,0,0.5884,0.5884,0,0.5875,0.5875,0.5875,0.5859,0.5859,0.5859,0.5858,0.5849,0.5849,0.5849,0,0,0,0,0,0,0,0,0,0,0,0,0,0.5888,0.5888,0.5884,0.5884,0.5884,0.5875,0.5875,0.5875,0.5859,0.5859,0.5858,0.5858,0.5849,0.5849,0.5849,0,0,0,0,0,0,0,0,0,0,0,0,0,0.5884,0.5888,0.5884,0.5875,0.5874,0.5875,0.5875,0.5875,0.5859,0.5859,0.5858,0.5858,0.5849,0.5849,0.5849,0.5858,0,0,0.5849,0.5849,0,0,0,0,0,0,0,0,0.5884,0.5884,0.5876,0.5876,0.5875,0.5868,0.5873,0.5869,0.5859,0.5865,0.5858,0.5858,0.5856,0.5855,0.5854,0.5858,0.5858,0.5849,0.5849,0.5849,0.5849,0,0,0,0,0,0,0,0.5884,0.5884,0.5881,0.5876,0.5875,0.5872,0.587,0.5872,0.5863,0.5864,0.5863,0.5862,0.5855,0.5854,0.5854,0.5857,0.5849,0.5849,0.5849,0.5849,0.5869,0.587,0,0,0,0,0,0,0.5886,0.5884,0.5881,0.588,0.5878,0.5872,0.5871,0.587,0.5863,0.5861,0.5863,0.5862,0.5855,0.5854,0.5854,0.5865,0.5849,0.5849,0.5849,0.5869,0.587,0.587,0,0,0,0,0,0,0.5886,0.5886,0.5881,0.5882,0.5881,0.5872,0.5872,0.587,0.587,0.5862,0.586,0.5864,0.5854,0.5854,0.5858,0.5864,0.5849,0.5849,0.5868,0.5869,0.587,0.5887,0,0,0,0,0,0,0.5886,0.5886,0.5889,0.5882,0.5881,0.5885,0.5873,0.5871,0.587,0.5868,0.5862,0.5861,0.5854,0.5858,0.5858,0.5864,0.5849,0.5868,0.5869,0.587,0.5885,0.5888,0.589,0,0,0,0,0,0.5886,0.5894,0.5889,0.5889,0.5885,0.5885,0.5885,0.5877,0.5871,0.5874,0.5869,0.5861,0.5864,0.5858,0.5858,0.5864,0.5867,0.5868,0.587,0.5884,0.5887,0.589,0,0,0,0,0,0,0.5901,0.5893,0.5888,0.5893,0.589,0.5883,0.5887,0.588,0.5879,0.5877,0.5868,0.5866,0.5872,0.5869,0.5863,0.5874,0.5864,0.5865,0.5876,0.5878,0.588,0.5881,0.5849,0,0,0,0,0,0.5905,0.5906,0.5899,0.5904,0.5903,0.5895,0.5895,0.5889,0.5886,0.5885,0.588,0.5877,0.5877,0.5878,0.5877,0.5885,0.5884,0.5889,0.5892,0.5894,0.5895,0.5899,0.5902,0.5874,0.5874,0.5874,0,0,0.5913,0.5909,0.591,0.5907,0.5904,0.5906,0.5894,0.5896,0.5898,0.5885,0.5889,0.5885,0.5881,0.5888,0.589,0.5885,0.5902,0.5895,0.5897,0.5897,0.5901,0.5904,0.5906,0.5875,0.5874,0.5874,0,0,0.5929,0.5926,0.593,0.5928,0.5924,0.5919,0.592,0.5914,0.5911,0.5915,0.5906,0.5907,0.5908,0.5906,0.5905,0.5921,0.5914,0.5921,0.5933,0.5938,0.594,0.5942,0.5948,0.595,0.5922,0.5923,0.5923,0,0.594,0.5941,0.5933,0.5936,0.5936,0.5925,0.593,0.5928,0.5924,0.5924,0.5918,0.592,0.5916,0.5922,0.5926,0.5926,0.5927,0.5922,0.594,0.5942,0.5944,0.595,0.5952,0.5923,0.5923,0.5923,0.5923,0,0.5955,0.5957,0.5961,0.5958,0.5958,0.5962,0.5954,0.5955,0.595,0.5946,0.595,0.5946,0.5945,0.5946,0.594,0.5952,0.5949,0.5942,0.5932,0.5947,0.5953,0.5955,0.5925,0.5924,0.5924,0.5924,0,0,0.5979,0.5972,0.5974,0.5973,0.5968,0.5969,0.5973,0.5973,0.5974,0.5972,0.5975,0.5977,0.5971,0.597,0.5964,0.5968,0.5983,0.5961,0.5961,0.5966,0.5995,0.6,0.6003,0.5978,0.5978,0.5979,0.5996,0,0.5993,0.5999,0.5993,0.6,0.6002,0.5993,0.5996,0.5994,0.599,0.5992,0.5988,0.5989,0.5981,0.598,0.5984,0.598,0.5988,0.5979,0.5981,0.5981,0.5982,0.6006,0.6011,0.6027,0.5998,0.5998,0.5998,0,0.6011,0.6011,0.6018,0.6014,0.6015,0.6018,0.6018,0.6019,0.6017,0.6014,0.6013,0.6007,0.6011,0.6002,0.6008,0.6001,0.6002,0.6001,0.6001,0.6001,0.5991,0.6007,0.6032,0.6035,0.6001,0.6001,0.6001,0,0.6028,0.6029,0.6035,0.6034,0.6029,0.6032,0.603,0.6027,0.6028,0.6028,0.6028,0.6028,0.6028,0.6029,0.6023,0.6017,0.603,0.602,0.6028,0.6028,0.6031,0.6031,0.6057,0.6031,0.6031,0.6031,0.6031,0,0.6045,0.6051,0.6042,0.6045,0.6051,0.6044,0.605,0.6047,0.6045,0.6048,0.604,0.6043,0.6035,0.6037,0.6033,0.6039,0.6039,0.6037,0.6036,0.6038,0.6038,0.6038,0.6037,0.6032,0.6032,0.6032,0.6032,0,0.6065,0.606,0.6065,0.606,0.6059,0.6064,0.606,0.6063,0.606,0.6063,0.6064,0.6058,0.606,0.6055,0.6056,0.6053,0.6062,0.6059,0.6063,0.6062,0.607,0.607,0.6097,0.6101,0.6073,0.6073,0.6073,0,0.6076,0.608,0.6077,0.6078,0.6077,0.6079,0.608,0.6073,0.6074,0.6073,0.6076,0.6078,0.6079,0.6083,0.6079,0.6081,0.6077,0.6087,0.6078,0.608,0.6078,0.6078,0.6079,0.6089,0.6089,0.609,0.609,0,0.6097,0.6095,0.6096,0.6097,0.6098,0.6098,0.6097,0.6099,0.6092,0.6094,0.6096,0.6097,0.6099,0.6101,0.6102,0.61,0.6094,0.6093,0.6095,0.6097,0.6099,0.6099,0.6068,0.6092,0.6092,0.6092,0.6092,0.6092,0.6113,0.6117,0.6115,0.6117,0.6116,0.6116,0.6119,0.6116,0.6118,0.6119,0.6115,0.6119,0.6118,0.6118,0.6117,0.612,0.6116,0.6119,0.6119,0.612,0.6122,0.6099,0.612,0.612,0.612,0.612,0.612,0,0.6134,0.6132,0.6134,0.6134,0.6136,0.6131,0.613,0.6132,0.6136,0.6135,0.6136,0.614,0.6142,0.6139,0.6141,0.6144,0.6141,0.6145,0.6144,0.6144,0.6125,0.6123,0.6147,0.6147,0.6147,0.6147,0.6147,0.6147,0.6145,0.6151,0.6148,0.6154,0.6152,0.6156,0.6156,0.6157,0.6156,0.616,0.6162,0.616,0.6159,0.6161,0.6163,0.6162,0.6163,0.6168,0.6166,0.6148,0.6145,0.6143,0.6141,0.6168,0.6168,0.6185,0.6185,0.6185]},{"header":{"parameterUnit":"m.s-1","parameterCategory":1,"la1":30.2991,"la2":30.254,"lo1":-89.0895,"lo2":-89.0444,"dy":0.0017,"dx":0.0017,"nx":28,"ny":28,"refTime":"2025-01-06T03:00:00:Z","depth":0,"parameterNumber":3,"parameterNumberName":"V-component_of_WINDS"},"data":[0,0,0,0,0,0,0,0,0,0,0,0,0,0,0,0,0,0,0,0,0,0,0,0,0,0,0,0,0,0,0,0,0,0,0,0,0,0,0,0,0,0,0,0,0,0,0,0,0,0,0,0,0,0,0,0,0,0,-4.5757,-4.5758,0,-4.5844,-4.5845,-4.5846,-4.5852,-4.5851,-4.585,-4.585,-4.5933,-4.5936,-4.5939,0,0,0,0,0,0,0,0,0,0,0,0,0,-4.5591,-4.5594,-4.5757,-4.5758,-4.5759,-4.5844,-4.5845,-4.5846,-4.5852,-4.5851,-4.585,-4.5849,-4.5932,-4.5936,-4.5939,0,0,0,0,0,0,0,0,0,0,0,0,0,-4.5669,-4.5595,-4.5757,-4.5773,-4.5775,-4.5844,-4.5845,-4.5847,-4.5853,-4.5851,-4.585,-4.5849,-4.5931,-4.5935,-4.594,-4.5997,0,0,-4.5954,-4.5956,0,0,0,0,0,0,0,0,-4.5665,-4.5675,-4.5769,-4.5772,-4.5774,-4.5836,-4.5817,-4.5897,-4.5853,-4.5823,-4.5849,-4.5848,-4.5901,-4.5908,-4.5928,-4.6001,-4.6005,-4.5954,-4.5957,-4.5959,-4.5961,0,0,0,0,0,0,0,-4.5659,-4.5671,-4.5791,-4.577,-4.5774,-4.5774,-4.5783,-4.5833,-4.5869,-4.5825,-4.5826,-4.5837,-4.5902,-4.5923,-4.593,-4.6006,-4.5954,-4.5958,-4.5961,-4.5963,-4.6132,-4.6134,0,0,0,0,0,0,-4.5651,-4.5667,-4.5788,-4.5794,-4.5715,-4.5778,-4.5789,-4.5818,-4.5868,-4.5875,-4.5838,-4.5837,-4.5916,-4.5924,-4.5933,-4.6005,-4.5959,-4.5964,-4.5966,-4.6131,-4.6133,-4.6135,0,0,0,0,0,0,-4.5648,-4.5662,-4.5785,-4.5731,-4.5746,-4.5782,-4.5815,-4.582,-4.5841,-4.5878,-4.5884,-4.5853,-4.5915,-4.5926,-4.5982,-4.6007,-4.5966,-4.597,-4.6129,-4.6131,-4.6134,-4.6148,0,0,0,0,0,0,-4.5643,-4.5661,-4.5684,-4.5731,-4.5749,-4.5834,-4.5816,-4.5823,-4.585,-4.5849,-4.5893,-4.5899,-4.5915,-4.5975,-4.5987,-4.6013,-4.5974,-4.6127,-4.613,-4.6133,-4.6145,-4.615,-4.6155,0,0,0,0,0,-4.5637,-4.5683,-4.5685,-4.57,-4.5779,-4.5836,-4.5846,-4.5864,-4.5852,-4.5875,-4.5899,-4.5898,-4.6003,-4.5981,-4.5994,-4.6022,-4.6125,-4.6129,-4.6133,-4.6143,-4.6149,-4.6155,0,0,0,0,0,0,-4.5635,-4.5689,-4.5692,-4.5755,-4.5791,-4.5837,-4.5866,-4.587,-4.5909,-4.5906,-4.5926,-4.5936,-4.5992,-4.6012,-4.5987,-4.6081,-4.6062,-4.6069,-4.6066,-4.6072,-4.6077,-4.6071,-4.5977,0,0,0,0,0,-4.5642,-4.5685,-4.5729,-4.578,-4.5799,-4.5829,-4.5854,-4.5866,-4.5903,-4.5918,-4.5946,-4.5981,-4.6022,-4.6048,-4.6087,-4.6148,-4.6158,-4.6174,-4.6179,-4.6183,-4.6188,-4.6223,-4.6231,-4.6147,-4.6147,-4.6147,0,0,-4.5656,-4.5691,-4.5717,-4.5781,-4.581,-4.5853,-4.5842,-4.5887,-4.5919,-4.5924,-4.598,-4.6002,-4.6041,-4.6101,-4.6128,-4.6119,-4.6214,-4.6188,-4.6191,-4.6194,-4.6228,-4.6236,-4.6243,-4.615,-4.6149,-4.6149,0,0,-4.5705,-4.5736,-4.5782,-4.5813,-4.5859,-4.5879,-4.589,-4.5936,-4.5952,-4.6008,-4.6013,-4.6051,-4.612,-4.6149,-4.6173,-4.6235,-4.6236,-4.6247,-4.6273,-4.6307,-4.6313,-4.6319,-4.6342,-4.635,-4.6253,-4.6253,-4.6253,0,-4.5716,-4.5783,-4.5805,-4.5852,-4.588,-4.5889,-4.5937,-4.5964,-4.6019,-4.6038,-4.6028,-4.6118,-4.6145,-4.6212,-4.6227,-4.6246,-4.6259,-4.6242,-4.6311,-4.6317,-4.6323,-4.6345,-4.6353,-4.6254,-4.6254,-4.6254,-4.6254,0,-4.5796,-4.5842,-4.5874,-4.593,-4.5962,-4.6008,-4.6036,-4.6065,-4.6075,-4.6096,-4.6154,-4.6188,-4.6235,-4.6252,-4.626,-4.632,-4.6313,-4.6307,-4.6289,-4.6332,-4.6353,-4.6361,-4.6256,-4.6255,-4.6255,-4.6255,0,0,-4.5843,-4.5914,-4.5925,-4.5952,-4.6004,-4.6039,-4.6086,-4.6135,-4.616,-4.6198,-4.6237,-4.6298,-4.6293,-4.632,-4.6332,-4.6362,-4.641,-4.6352,-4.6353,-4.6362,-4.6479,-4.6483,-4.6493,-4.6411,-4.6413,-4.6414,-4.6476,0,-4.5898,-4.5984,-4.6007,-4.6079,-4.6123,-4.6133,-4.6174,-4.621,-4.6232,-4.627,-4.6293,-4.6336,-4.6326,-4.6343,-4.6373,-4.6398,-4.6434,-4.6394,-4.6447,-4.6449,-4.6437,-4.6504,-4.6508,-4.6565,-4.6484,-4.6485,-4.6486,0,-4.5973,-4.6016,-4.6094,-4.6143,-4.6162,-4.6199,-4.6246,-4.6284,-4.6324,-4.6338,-4.637,-4.6379,-4.6428,-4.6407,-4.6474,-4.6447,-4.647,-4.6485,-4.6488,-4.6494,-4.647,-4.6511,-4.6583,-4.6592,-4.6499,-4.6498,-4.6497,0,-4.6001,-4.6078,-4.6136,-4.6158,-4.6216,-4.6241,-4.6266,-4.6306,-4.6335,-4.6376,-4.6394,-4.6439,-4.6464,-4.6498,-4.6519,-4.6503,-4.6585,-4.6566,-4.6597,-4.6596,-4.6613,-4.6612,-4.669,-4.6628,-4.6628,-4.6628,-4.6628,0,-4.606,-4.6107,-4.6149,-4.6184,-4.6238,-4.6263,-4.6315,-4.6339,-4.6375,-4.6415,-4.6425,-4.6462,-4.6488,-4.6527,-4.6544,-4.6597,-4.6608,-4.662,-4.6624,-4.6619,-4.6618,-4.6634,-4.6631,-4.663,-4.663,-4.6629,-4.6629,0,-4.61,-4.613,-4.6193,-4.6244,-4.6258,-4.6295,-4.6338,-4.6372,-4.6395,-4.6445,-4.6458,-4.6493,-4.6541,-4.6566,-4.6624,-4.6635,-4.6695,-4.6696,-4.6682,-4.6684,-4.6714,-4.6711,-4.6805,-4.6819,-4.6748,-4.6748,-4.6749,0,-4.6135,-4.6173,-4.6229,-4.6257,-4.6284,-4.6329,-4.6359,-4.6385,-4.6416,-4.6467,-4.6495,-4.6544,-4.6584,-4.6659,-4.6689,-4.6734,-4.6736,-4.6767,-4.6743,-4.6738,-4.6737,-4.6735,-4.6739,-4.677,-4.6771,-4.6772,-4.6772,0,-4.6195,-4.6209,-4.6254,-4.6305,-4.6341,-4.6381,-4.6421,-4.6443,-4.6475,-4.6509,-4.656,-4.6591,-4.6653,-4.6701,-4.6749,-4.6773,-4.6778,-4.678,-4.6789,-4.6785,-4.6775,-4.6782,-4.6694,-4.6777,-4.6777,-4.6776,-4.6776,-4.6776,-4.6235,-4.6269,-4.6315,-4.6365,-4.6398,-4.6435,-4.6471,-4.6499,-4.6543,-4.6597,-4.6609,-4.6662,-4.6703,-4.6768,-4.6794,-4.6835,-4.6828,-4.6842,-4.6846,-4.6849,-4.6851,-4.6769,-4.6843,-4.6843,-4.6843,-4.6843,-4.6843,0,-4.6296,-4.6327,-4.6373,-4.6429,-4.6469,-4.6473,-4.6517,-4.6549,-4.6597,-4.6636,-4.6677,-4.6735,-4.6782,-4.6817,-4.6865,-4.6891,-4.6895,-4.6903,-4.6901,-4.6907,-4.6853,-4.684,-4.6899,-4.6899,-4.6899,-4.6899,-4.6899,-4.6899,-4.6333,-4.6392,-4.6411,-4.6487,-4.6517,-4.6571,-4.6597,-4.6631,-4.6663,-4.6728,-4.6769,-4.6792,-4.6829,-4.6881,-4.6924,-4.6933,-4.695,-4.6958,-4.6967,-4.6916,-4.691,-4.6904,-4.6893,-4.6962,-4.6962,-4.7017,-4.7018,-4.7018]}]]